Mount Pleasant, IA

10:00 AM CDT on April 25, 2017 (GMT -0500)
Mount Pleasant Municipal

Weather History for KMPZ - October, 2013

Change the Weather History Date:

Saturday, October 12, 2013

  Actual Average Record
Temperature  
Mean Temperature 58 °F -  
Max Temperature 71 °F 66 °F 88 °F (1956)
Min Temperature 45 °F 43 °F 24 °F (1987)
Degree Days  
Heating Degree Days 6    
Growing Degree Days 8 (Base 50)    
Moisture  
Dew Point 42 °F    
Average Humidity 49    
Maximum Humidity 82    
Minimum Humidity 21    
Precipitation  
Precipitation 0.00 in - - ()
Sea Level Pressure  
Sea Level Pressure 30.04 in    
Wind  
Wind Speed 10 mph (West)    
Max Wind Speed 15 mph    
Max Gust Speed 22 mph    
Visibility 10 miles    
Events      
Averages and records for this station are not official NWS values.
T = Trace of Precipitation, MM = Missing Value Source: NWS Daily Summary

Daily Weather History Graph

Daily Weather History Graph

Search for Another Location

Airport or City:

Trip Planner

Search our weather history database for the weather conditions in past years. The results will help you decide how hot, cold, wet, or windy it might be!

Date:

Astronomy

Oct. 12, 2013 Rise Set
Actual Time 7:14 AM CDT 6:29 PM CDT
Civil Twilight 6:46 AM CDT 6:57 PM CDT
Nautical Twilight 6:15 AM CDT 7:29 PM CDT
Astronomical Twilight 5:43 AM CDT 8:00 PM CDT
Moon 2:42 PM CDT (10/12) 12:15 AM CDT (10/12)
Length of Visible Light 12h 10m
Length of Day
11h 15m
First Quarter, 59% of the Moon is Illuminated
Oct 12
First Quarter
Oct 18
Full
Oct 26
Last Quarter
Nov 3
New
Nov 9
First Quarter

Hourly Weather History & Observations

Time (CDT) Temp. Windchill Dew Point Humidity Pressure Visibility Wind Dir Wind Speed Gust Speed Precip Events Conditions
12:15 AM 69.8 °F - 54.5 °F 58% 29.88 in 10.0 mi South 13.8 mph - N/A   Mostly Cloudy
12:35 AM 69.3 °F - 54.7 °F 60% 29.87 in 10.0 mi South 11.5 mph 18.4 mph N/A   Scattered Clouds
12:55 AM 68.5 °F - 55.2 °F 62% 29.88 in 10.0 mi South 11.5 mph - N/A   Clear
1:15 AM 68.2 °F - 55.6 °F 64% 29.87 in 10.0 mi South 11.5 mph - N/A   Clear
1:35 AM 67.6 °F - 55.8 °F 66% 29.88 in 10.0 mi South 11.5 mph - N/A   Clear
1:55 AM 68.0 °F - 56.3 °F 66% 29.89 in 10.0 mi South 11.5 mph - N/A   Mostly Cloudy
2:15 AM 68.2 °F - 56.5 °F 66% 29.90 in 10.0 mi South 12.7 mph - N/A   Mostly Cloudy
2:35 AM 67.3 °F - 56.7 °F 69% 29.89 in 10.0 mi South 10.4 mph - N/A   Scattered Clouds
2:55 AM 67.5 °F - 56.8 °F 69% 29.89 in 10.0 mi South 9.2 mph - N/A   Mostly Cloudy
3:15 AM 67.5 °F - 57.2 °F 70% 29.89 in 10.0 mi South 9.2 mph - N/A   Overcast
3:35 AM 67.1 °F - 57.2 °F 70% 29.88 in 10.0 mi South 12.7 mph - N/A   Mostly Cloudy
3:55 AM 66.4 °F - 57.2 °F 72% 29.88 in 10.0 mi South 10.4 mph - N/A   Scattered Clouds
4:15 AM 64.8 °F - 56.8 °F 75% 29.89 in 10.0 mi South 6.9 mph - N/A   Scattered Clouds
4:35 AM 64.6 °F - 57.2 °F 77% 29.88 in 10.0 mi South 6.9 mph - N/A   Scattered Clouds
4:55 AM 63.7 °F - 57.2 °F 79% 29.88 in 10.0 mi South 8.1 mph - N/A   Clear
5:15 AM 64.4 °F - 57.4 °F 78% 29.90 in 10.0 mi South 6.9 mph - N/A   Scattered Clouds
5:35 AM 63.5 °F - 57.6 °F 81% 29.90 in 10.0 mi South 6.9 mph - N/A   Scattered Clouds
5:55 AM 64.0 °F - 58.1 °F 81% 29.93 in 10.0 mi WSW 6.9 mph - N/A   Mostly Cloudy
6:15 AM 63.7 °F - 58.1 °F 82% 29.95 in 10.0 mi WSW 10.4 mph - N/A   Overcast
6:35 AM 64.2 °F - 58.1 °F 80% 29.93 in 10.0 mi WNW 8.1 mph - N/A   Overcast
6:55 AM 63.3 °F - 56.5 °F 78% 29.94 in 10.0 mi WNW 13.8 mph 21.9 mph N/A   Overcast
7:15 AM 60.3 °F - 47.5 °F 63% 29.95 in 10.0 mi NW 12.7 mph 17.3 mph N/A   Overcast
7:35 AM 59.4 °F - 46.9 °F 63% 29.96 in 10.0 mi NW 11.5 mph 18.4 mph N/A   Overcast
7:55 AM 59.2 °F - 45.7 °F 61% 29.98 in 10.0 mi NW 10.4 mph - N/A   Overcast
8:15 AM 58.5 °F - 43.9 °F 58% 30.00 in 10.0 mi WNW 9.2 mph - N/A   Mostly Cloudy
8:35 AM 57.7 °F - 43.3 °F 59% 30.01 in 10.0 mi NW 10.4 mph 17.3 mph N/A   Scattered Clouds
8:55 AM 57.2 °F - 43.2 °F 59% 30.02 in 10.0 mi NW 6.9 mph - N/A   Clear
9:15 AM 59.0 °F - 43.0 °F 55% 30.03 in 10.0 mi WNW 9.2 mph - N/A   Clear
9:35 AM 60.8 °F - 42.8 °F 52% 30.03 in 10.0 mi WNW 11.5 mph - N/A   Clear
9:55 AM 61.5 °F - 41.9 °F 49% 30.03 in 10.0 mi NW 10.4 mph - N/A   Clear
10:15 AM 62.2 °F - 40.6 °F 45% 30.03 in 10.0 mi WNW 11.5 mph - N/A   Clear
10:35 AM 62.8 °F - 40.5 °F 44% 30.04 in 10.0 mi NW 10.4 mph 16.1 mph N/A   Clear
10:55 AM 64.6 °F - 39.6 °F 40% 30.04 in 10.0 mi WNW 11.5 mph 18.4 mph N/A   Clear
11:15 AM 65.1 °F - 38.8 °F 38% 30.05 in 10.0 mi WNW 10.4 mph - N/A   Clear
11:35 AM 65.5 °F - 38.8 °F 38% 30.06 in 10.0 mi NW 8.1 mph 18.4 mph N/A   Clear
11:55 AM 66.4 °F - 37.2 °F 34% 30.07 in 10.0 mi WNW 13.8 mph 19.6 mph N/A   Clear
12:15 PM 67.1 °F - 38.3 °F 35% 30.07 in 10.0 mi West 12.7 mph 17.3 mph N/A   Clear
12:35 PM 67.3 °F - 36.5 °F 32% 30.07 in 10.0 mi WNW 15.0 mph 21.9 mph N/A   Clear
12:55 PM 67.1 °F - 37.9 °F 34% 30.07 in 10.0 mi West 13.8 mph 18.4 mph N/A   Clear
1:15 PM 67.6 °F - 36.0 °F 31% 30.07 in 10.0 mi WNW 12.7 mph - N/A   Clear
1:35 PM 68.9 °F - 33.6 °F 27% 30.07 in 10.0 mi WNW 11.5 mph 20.7 mph N/A   Clear
1:55 PM 69.4 °F - 32.7 °F 26% 30.07 in 10.0 mi WNW 9.2 mph 20.7 mph N/A   Clear
2:15 PM 70.9 °F - 32.2 °F 24% 30.07 in 10.0 mi WNW 13.8 mph 18.4 mph N/A   Clear
2:35 PM 70.3 °F - 30.9 °F 23% 30.07 in 10.0 mi WNW 11.5 mph 18.4 mph N/A   Clear
2:55 PM 71.1 °F - 31.1 °F 23% 30.08 in 10.0 mi West 9.2 mph 18.4 mph N/A   Clear
3:15 PM 71.1 °F - 29.1 °F 21% 30.09 in 10.0 mi West 13.8 mph 17.3 mph N/A   Clear
3:35 PM 70.0 °F - 29.3 °F 22% 30.09 in 10.0 mi WNW 9.2 mph 20.7 mph N/A   Clear
3:55 PM 70.5 °F - 28.4 °F 21% 30.10 in 10.0 mi West 11.5 mph 20.7 mph N/A   Clear
4:15 PM 69.8 °F - 29.8 °F 23% 30.10 in 10.0 mi WNW 10.4 mph 20.7 mph N/A   Clear
4:35 PM 70.0 °F - 29.7 °F 22% 30.11 in 10.0 mi West 12.7 mph - N/A   Clear
4:55 PM 68.9 °F - 29.5 °F 23% 30.11 in 7.0 mi West 12.7 mph 18.4 mph N/A   Clear
5:15 PM 68.4 °F - 30.2 °F 24% 30.11 in 10.0 mi West 13.8 mph 18.4 mph N/A   Clear
5:35 PM 67.6 °F - 31.1 °F 26% 30.12 in 10.0 mi West 9.2 mph - N/A   Clear
5:55 PM 66.6 °F - 31.8 °F 27% 30.13 in 10.0 mi West 8.1 mph - N/A   Clear
6:15 PM 64.9 °F - 32.0 °F 29% 30.13 in 10.0 mi West 8.1 mph - N/A   Clear
6:35 PM 63.0 °F - 32.9 °F 32% 30.13 in 10.0 mi WNW 6.9 mph - N/A   Clear
6:55 PM 61.9 °F - 32.0 °F 33% 30.14 in 10.0 mi WNW 4.6 mph - N/A   Clear
7:15 PM 60.8 °F - 32.0 °F 34% 30.14 in 10.0 mi WNW 5.8 mph - N/A   Clear
7:35 PM 59.7 °F - 32.0 °F 35% 30.15 in 10.0 mi WNW 5.8 mph - N/A   Clear
7:55 PM 58.6 °F - 32.9 °F 38% 30.16 in 10.0 mi West 4.6 mph - N/A   Clear
8:15 PM 57.7 °F - 32.9 °F 39% 30.16 in 7.0 mi West 3.5 mph - N/A   Clear
8:35 PM 56.8 °F - 33.3 °F 41% 30.17 in 10.0 mi WNW 3.5 mph - N/A   Clear
8:55 PM 54.7 °F - 33.8 °F 45% 30.18 in 10.0 mi WSW 3.5 mph - N/A   Clear
9:15 PM 53.1 °F - 34.2 °F 49% 30.19 in 10.0 mi West 4.6 mph - N/A   Clear
9:35 PM 54.5 °F - 34.0 °F 46% 30.19 in 10.0 mi West 4.6 mph - N/A   Clear
9:55 PM 53.6 °F - 34.9 °F 49% 30.20 in 10.0 mi West 4.6 mph - N/A   Clear
10:15 PM 52.9 °F - 34.3 °F 49% 30.21 in 10.0 mi West 4.6 mph - N/A   Clear
10:35 PM 49.8 °F - 34.7 °F 56% 30.22 in 10.0 mi WSW 3.5 mph - N/A   Clear
10:55 PM 47.5 °F - 35.4 °F 63% 30.22 in 10.0 mi Calm Calm - N/A   Clear
11:15 PM 49.1 °F - 34.9 °F 58% 30.23 in 10.0 mi WSW 3.5 mph - N/A   Clear
11:35 PM 46.2 °F 45.0 °F 34.9 °F 65% 30.23 in 10.0 mi SW 3.5 mph - N/A   Clear
11:55 PM 45.1 °F - 35.2 °F 68% 30.23 in 10.0 mi Calm Calm - N/A   Clear